Location: Spangle
(47.4302°N, 117.3779°W)
Time: 15:13:47
(UTC+00:00)

Envisat - Pass Details

Date: 27 April 2026
Orbit: 761 x 762 km, 98.4° (Epoch: 15 May)

Event Time Altitude Azimuth Distance (km) Brightness Sun altitude
Rises 12:00:28 0° 2° (N) 3,236 6.7 -6.7°
Reaches altitude 10° 12:03:20 10° 346° (NNW) 2,305 5.7 -6.3°
Maximum altitude 12:06:54 20° 301° (WNW) 1,725 4.6 -5.8°
Drops below altitude 10° 12:10:27 10° 256° (WSW) 2,294 4.8 -5.3°
Enters shadow 12:11:35 - 248° (WSW) 2,637 5.1 -5.1°
